Location: Kumla
(59.1265°N, 15.1401°E)
Time: 18:25:10
(UTC+01:00)

Transit 2A - Pass Details

Date: 10 December 2023
Orbit: 600 x 953 km, 66.7° (Epoch: 27 February)

Event Time Altitude Azimuth Distance (km) Brightness Sun altitude
Rises 18:14:23 0° 280° (W) 2,980 10.3 -22.3°
Reaches altitude 10° 18:16:57 10° 291° (WNW) 2,028 9.0 -22.7°
Maximum altitude 18:21:00 31° 355° (N) 1,081 6.7 -23.2°
Enters shadow 18:21:14 31° 1° (N) 1,085 6.7 -23.2°
Drops below altitude 10° 18:24:55 10° 58° (ENE) 1,955 - -23.7°
Sets 18:27:21 0° 69° (ENE) 2,856 - -24.0°
